Date String (YYYY-MM-DD hh:mm:ss) UTC,Instrument flags,Ambient pressure (hPa),Sample flow (lpm),Bypass flow (lpm),Sample temperature (°C),Ambient temperature (°C),ASC tube jacket temperature (°C),LED temperature (°C),Box temperature (°C),Sample RH (%),Span deviation,Mass concentration (μg/m³),Mass concentration (μg/m³),Mass concentration (μg/m³)
DateTimeUTC,F1_M11,P_M11,Q1_M11,Q2_M11,T1_M11,T2_M11,T3_M11,T4_M11,T5_M11,U1_M11,ZSPAN_M11,X0_M11,X2_M11,X1_M11
2022-03-19 04:00:00,,0826.5,5.01,0.00,24.3,23.4,00.0,33.3,26.1,06.0,0000.0,0005.20,0002.58,0001.59
2022-03-19 04:01:00,,0826.5,5.00,0.00,24.4,23.4,00.0,33.3,26.1,06.2,0000.0,0005.29,0002.63,0001.59
2022-03-19 04:02:00,,0826.5,5.00,0.00,24.3,23.4,00.0,33.3,26.1,06.2,0000.0,0005.17,0002.66,0001.59
2022-03-19 04:03:00,,0826.4,4.98,0.00,24.3,23.4,00.0,33.3,26.1,06.2,0000.0,0005.00,0002.64,0001.59
2022-03-19 04:04:00,,0826.3,5.02,0.00,24.3,23.3,00.0,33.3,26.1,06.1,0000.0,0005.30,0002.68,0001.60
2022-03-19 04:05:00,,0826.3,5.00,0.00,24.3,23.4,00.0,33.3,26.1,06.1,0000.0,0005.77,0002.72,0001.62
2022-03-19 04:06:00,,0826.3,5.00,0.00,24.3,23.4,00.0,33.3,26.1,06.1,0000.0,0006.14,0002.64,0001.63
2022-03-19 04:07:00,,0826.4,5.01,0.00,24.3,23.4,00.0,33.3,26.1,06.1,0000.0,0005.92,0002.60,0001.63
2022-03-19 04:08:00,,0826.4,5.00,0.00,24.3,23.4,00.0,33.3,26.1,06.1,0000.0,0006.06,0002.61,0001.63
2022-03-19 04:09:00,,0826.4,5.00,0.00,24.3,23.4,00.0,33.3,26.1,06.1,0000.0,0006.50,0002.73,0001.65
2022-03-19 04:10:00,,0826.4,5.00,0.00,24.4,23.4,00.0,33.3,26.2,06.1,0000.0,0006.84,0002.85,0001.67
2022-03-19 04:11:00,,0826.4,5.00,0.00,24.4,23.4,00.0,33.3,26.2,06.1,0000.0,0007.05,0002.93,0001.67
2022-03-19 04:12:00,,0826.4,5.00,0.00,24.4,23.4,00.0,33.3,26.2,06.1,0000.0,0007.38,0002.94,0001.68
2022-03-19 04:13:00,,0826.3,5.00,0.00,24.4,23.4,00.0,33.3,26.2,06.2,0000.0,0007.58,0002.94,0001.71
2022-03-19 04:14:00,,0826.3,5.00,0.00,24.4,23.4,00.0,33.3,26.1,06.2,0000.0,0007.70,0003.03,0001.75
2022-03-19 04:15:00,,0826.3,5.01,0.00,24.4,23.4,00.0,33.3,26.2,06.2,0000.0,0007.75,0003.10,0001.79
2022-03-19 04:16:00,,0826.3,4.99,0.00,24.4,23.4,00.0,33.3,26.2,06.2,0000.0,0007.36,0003.05,0001.82
2022-03-19 04:17:00,,0826.3,5.00,0.00,24.4,23.4,00.0,33.3,26.2,06.2,0000.0,0007.01,0003.09,0001.82
2022-03-19 04:18:00,,0826.2,5.00,0.00,24.3,23.3,00.0,33.3,26.1,06.2,0000.0,0007.20,0003.18,0001.82
2022-03-19 04:19:00,,0826.3,4.99,0.00,24.3,23.3,00.0,33.3,26.0,06.2,0000.0,0007.15,0003.20,0001.81
2022-03-19 04:20:00,,0826.3,4.99,0.00,24.3,23.3,00.0,33.3,26.0,06.2,0000.0,0007.28,0003.23,0001.82
2022-03-19 04:21:00,,0826.4,5.01,0.00,24.3,23.3,00.0,33.3,26.0,06.4,0000.0,0007.22,0003.21,0001.82
2022-03-19 04:22:00,,0826.4,5.00,0.00,24.3,23.2,00.0,33.3,25.9,06.6,0000.0,0007.12,0003.17,0001.83
2022-03-19 04:23:00,,0826.3,4.99,0.00,24.2,23.2,00.0,33.3,25.9,06.7,0000.0,0006.77,0003.14,0001.82
2022-03-19 04:24:00,,0826.3,4.99,0.00,24.2,23.2,00.0,33.3,26.0,06.8,0000.0,0006.23,0003.13,0001.80
2022-03-19 04:25:00,,0826.3,5.02,0.00,24.3,23.2,00.0,33.3,26.0,06.8,0000.0,0006.10,0003.05,0001.74
2022-03-19 04:26:00,,0826.2,5.00,0.00,24.3,23.3,00.0,33.3,26.0,06.9,0000.0,0005.85,0002.94,0001.68
2022-03-19 04:27:00,,0826.2,4.99,0.00,24.2,23.3,00.0,33.3,26.0,06.9,0000.0,0005.83,0002.89,0001.62
2022-03-19 04:28:00,,0826.2,5.00,0.00,24.2,23.3,00.0,33.2,26.0,06.8,0000.0,0005.54,0002.81,0001.60
2022-03-19 04:29:00,,0826.2,5.02,0.00,24.2,23.3,00.0,33.2,26.0,06.8,0000.0,0005.30,0002.71,0001.58
2022-03-19 04:30:00,,0826.2,5.00,0.00,24.2,23.3,00.0,33.2,26.0,06.9,0000.0,0005.34,0002.64,0001.56
2022-03-19 04:31:00,,0826.2,4.99,0.00,24.2,23.2,00.0,33.2,26.0,07.1,0000.0,0005.05,0002.54,0001.52
2022-03-19 04:32:00,,0826.2,4.99,0.00,24.2,23.2,00.0,33.2,26.0,07.2,0000.0,0005.01,0002.52,0001.48
2022-03-19 04:33:00,,0826.3,5.00,0.00,24.2,23.2,00.0,33.2,26.0,07.2,0000.0,0005.07,0002.51,0001.44
2022-03-19 04:34:00,,0826.3,5.01,0.00,24.2,23.2,00.0,33.2,25.9,07.0,0000.0,0005.35,0002.57,0001.42
2022-03-19 04:35:00,,0826.2,5.00,0.00,24.2,23.2,00.0,33.2,25.9,07.0,0000.0,0005.26,0002.53,0001.42
2022-03-19 04:36:00,,0826.2,5.00,0.00,24.2,23.2,00.0,33.2,25.9,06.9,0000.0,0005.11,0002.52,0001.41
2022-03-19 04:37:00,,0826.3,4.99,0.00,24.2,23.2,00.0,33.2,25.9,06.9,0000.0,0005.66,0002.61,0001.45
2022-03-19 04:38:00,,0826.3,5.00,0.00,24.2,23.2,00.0,33.2,25.9,06.9,0000.0,0006.06,0002.71,0001.50
2022-03-19 04:39:00,,0826.4,5.01,0.00,24.2,23.2,00.0,33.2,25.9,06.9,0000.0,0006.42,0002.88,0001.59
2022-03-19 04:40:00,,0826.4,5.00,0.00,24.2,23.2,00.0,33.2,25.9,07.0,0000.0,0006.41,0002.89,0001.62
2022-03-19 04:41:00,,0826.4,4.99,0.00,24.2,23.2,00.0,33.2,25.9,07.0,0000.0,0006.35,0002.89,0001.61
2022-03-19 04:42:00,,0826.4,4.99,0.00,24.1,23.2,00.0,33.2,25.9,06.8,0000.0,0006.56,0002.95,0001.60
2022-03-19 04:43:00,,0826.3,5.00,0.00,24.1,23.2,00.0,33.2,25.9,06.8,0000.0,0007.20,0002.97,0001.60
2022-03-19 04:44:00,,0826.3,5.02,0.00,24.1,23.2,00.0,33.2,25.9,07.0,0000.0,0007.36,0002.94,0001.60
2022-03-19 04:45:00,,0826.3,4.99,0.00,24.1,23.2,00.0,33.2,25.9,07.2,0000.0,0007.14,0002.84,0001.60
2022-03-19 04:46:00,,0826.3,4.99,0.00,24.1,23.2,00.0,33.1,25.9,07.4,0000.0,0007.41,0002.89,0001.58
2022-03-19 04:47:00,,0826.3,5.00,0.00,24.1,23.2,00.0,33.1,25.8,07.6,0000.0,0007.43,0002.89,0001.57
2022-03-19 04:48:00,,0826.3,5.00,0.00,24.1,23.1,00.0,33.1,25.7,07.5,0000.0,0007.10,0002.84,0001.55
2022-03-19 04:49:00,,0826.4,5.01,0.00,24.1,23.1,00.0,33.1,25.8,07.2,0000.0,0006.74,0002.79,0001.54
2022-03-19 04:50:00,,0826.5,5.00,0.00,24.1,23.1,00.0,33.1,25.7,07.2,0000.0,0006.60,0002.72,0001.49
2022-03-19 04:51:00,,0826.5,4.99,0.00,24.0,23.1,00.0,33.1,25.7,07.2,0000.0,0006.77,0002.78,0001.50
2022-03-19 04:52:00,,0826.4,5.01,0.00,24.0,23.1,00.0,33.1,25.7,07.1,0000.0,0006.98,0002.93,0001.58
2022-03-19 04:53:00,,0826.4,4.99,0.00,24.0,23.1,00.0,33.1,25.7,06.9,0000.0,0007.06,0003.04,0001.66
2022-03-19 04:54:00,,0826.4,5.00,0.00,24.0,23.1,00.0,33.1,25.7,06.9,0000.0,0006.74,0003.11,0001.74
2022-03-19 04:55:00,,0826.4,5.01,0.00,24.0,23.1,00.0,33.1,25.7,07.0,0000.0,0006.68,0003.19,0001.85
2022-03-19 04:56:00,,0826.4,5.02,0.00,24.0,23.1,00.0,33.1,25.7,07.0,0000.0,0006.91,0003.28,0001.95
2022-03-19 04:57:00,,0826.3,5.00,0.00,24.0,23.1,00.0,33.1,25.7,06.9,0000.0,0006.77,0003.34,0002.08
2022-03-19 04:58:00,,0826.3,5.00,0.00,24.1,23.1,00.0,33.1,25.8,06.8,0000.0,0006.91,0003.38,0002.17
2022-03-19 04:59:00,,0826.5,5.00,0.00,24.1,23.1,00.0,33.0,25.9,06.7,0000.0,0007.06,0003.44,0002.23
